Tracking 25534 objects as of 28-Jan-2022
HD Live streaming from Space Station
objects crossing your sky now

STARLINK-3332

Track STARLINK-3332 now!
10-day predictions
STARLINK-3332 is classified as:


NORAD ID: 50825
Int'l Code: 2022-001Y
Perigee: 355.5 km
Apogee: 358.2 km
Inclination: 53.2 °
Period: 91.5 minutes
Semi major axis: 6727 km
RCS: Unknown
Launch date: January 6, 2022
Source: United States (US)
Launch site: AIR FORCE EASTERN TEST RANGE (AFETR)
aabbcc
Your satellite tracking list
Your tracking list is empty




NASA's NSSDC Master Catalog

Two Line Element Set (TLE):
1 50825U 22001Y   22028.45157229  .00008021  00000-0  61481-4 0  9999
2 50825  53.2151  92.3680 0002001  33.3389 326.7757 15.73213743  3432
Source of the keplerian elements: AFSPC